TimeCDT,TemperatureF,Dew PointF,Humidity,Sea Level PressureIn,VisibilityMPH,Wind Direction,Wind SpeedMPH,Gust SpeedMPH,PrecipitationIn,Events,Conditions,WindDirDegrees,DateUTC
12:55 AM,71.6,69.8,94,30.07,10.0,Calm,Calm,-,N/A,,Overcast,0,2013-08-17 05:55:00
1:55 AM,71.6,68.0,88,30.07,10.0,Calm,Calm,-,N/A,,Overcast,0,2013-08-17 06:55:00
2:55 AM,69.8,68.0,94,30.06,10.0,NE,3.5,-,N/A,,Mostly Cloudy,40,2013-08-17 07:55:00
3:15 AM,69.8,68.0,94,30.06,10.0,Calm,Calm,-,N/A,,Scattered Clouds,0,2013-08-17 08:15:00
3:35 AM,69.8,68.0,94,30.06,10.0,ENE,3.5,-,N/A,,Partly Cloudy,70,2013-08-17 08:35:00
3:55 AM,69.8,66.2,88,30.06,10.0,NE,3.5,-,N/A,,Clear,50,2013-08-17 08:55:00
4:15 AM,69.8,66.2,88,30.06,10.0,Calm,Calm,-,N/A,,Clear,0,2013-08-17 09:15:00
4:35 AM,68.0,66.2,94,30.05,9.0,Calm,Calm,-,N/A,,Clear,0,2013-08-17 09:35:00
4:55 AM,68.0,66.2,94,30.05,10.0,Calm,Calm,-,N/A,,Clear,0,2013-08-17 09:55:00
5:15 AM,66.2,66.2,100,30.05,7.0,Calm,Calm,-,N/A,,Clear,0,2013-08-17 10:15:00
5:35 AM,66.2,66.2,100,30.05,10.0,Calm,Calm,-,N/A,,Partly Cloudy,0,2013-08-17 10:35:00
5:55 AM,66.2,66.2,100,30.06,10.0,Calm,Calm,-,N/A,,Partly Cloudy,0,2013-08-17 10:55:00
6:55 AM,68.0,68.0,100,30.07,10.0,ENE,3.5,-,N/A,,Partly Cloudy,70,2013-08-17 11:55:00
7:55 AM,69.8,68.0,94,30.08,10.0,Calm,Calm,-,N/A,,Mostly Cloudy,0,2013-08-17 12:55:00
8:55 AM,71.6,68.0,88,30.09,9.0,Calm,Calm,-,N/A,,Mostly Cloudy,0,2013-08-17 13:55:00
9:55 AM,75.2,68.0,78,30.09,10.0,Calm,Calm,-,N/A,,Mostly Cloudy,0,2013-08-17 14:55:00
10:55 AM,75.2,68.0,78,30.10,10.0,NE,5.8,-,N/A,,Mostly Cloudy,40,2013-08-17 15:55:00
11:55 AM,77.0,68.0,74,30.09,10.0,Variable,5.8,-,N/A,,Mostly Cloudy,0,2013-08-17 16:55:00
12:55 PM,73.4,69.8,88,30.08,10.0,NE,4.6,-,N/A,Rain,Light Rain,50,2013-08-17 17:55:00
1:55 PM,75.2,69.8,83,30.06,10.0,NE,5.8,-,N/A,,Mostly Cloudy,40,2013-08-17 18:55:00
2:55 PM,78.8,66.2,65,30.04,10.0,Variable,4.6,-,N/A,,Scattered Clouds,0,2013-08-17 19:55:00
3:55 PM,80.6,66.2,61,30.03,10.0,NNE,5.8,-,N/A,,Scattered Clouds,20,2013-08-17 20:55:00
4:55 PM,82.4,68.0,62,30.03,10.0,North,6.9,-,N/A,,Scattered Clouds,360,2013-08-17 21:55:00
5:55 PM,80.6,69.8,70,30.03,10.0,North,3.5,-,N/A,,Mostly Cloudy,350,2013-08-17 22:55:00
6:55 PM,75.2,69.8,83,30.03,10.0,NNE,3.5,-,N/A,,Mostly Cloudy,30,2013-08-17 23:55:00
7:55 PM,73.4,68.0,83,30.05,10.0,North,3.5,-,N/A,,Partly Cloudy,10,2013-08-18 00:55:00
8:55 PM,71.6,68.0,88,30.06,10.0,Calm,Calm,-,N/A,,Mostly Cloudy,0,2013-08-18 01:55:00
9:55 PM,71.6,68.0,88,30.06,10.0,NE,3.5,-,N/A,,Mostly Cloudy,50,2013-08-18 02:55:00
10:55 PM,69.8,68.0,94,30.06,10.0,NE,3.5,-,N/A,,Clear,50,2013-08-18 03:55:00
11:55 PM,69.8,66.2,88,30.07,10.0,Calm,Calm,-,N/A,,Clear,0,2013-08-18 04:55:00